Hourly Weather Holmsbu

Today, 12 April, Monday

Time Temperature Precipitation Wind Pressure Humidity
00:00 -1°C° 0.5 mm 4 mps 745 mmHg 96%
01:00 -2°C° 0 mm 4 mps 745 mmHg 96%
02:00 -2°C° 0.7 mm 4 mps 744 mmHg 96%
03:00 -2°C° 0.7 mm 4 mps 744 mmHg 96%
04:00 -1°C° 0.7 mm 3 mps 743 mmHg 97%
05:00 -1°C° 0.9 mm 3 mps 743 mmHg 96%
06:00 -1°C° 0.9 mm 3 mps 743 mmHg 96%
07:00 0°C° 0.9 mm 3 mps 743 mmHg 96%
08:00 0°C° 0.7 mm 3 mps 743 mmHg 96%
09:00 0°C° 0.7 mm 3 mps 743 mmHg 96%
10:00 +2°C° 0.7 mm 2 mps 743 mmHg 96%
11:00 +2°C° 0.5 mm 2 mps 743 mmHg 95%
12:00 +2°C° 0.5 mm 2 mps 743 mmHg 95%
13:00 +2°C° 0.5 mm 2 mps 743 mmHg 94%
14:00 +2°C° 0.5 mm 2 mps 743 mmHg 95%
15:00 +2°C° 0.5 mm 2 mps 743 mmHg 96%
16:00 +2°C° 0.5 mm 2 mps 743 mmHg 96%
17:00 +2°C° 0.5 mm 2 mps 743 mmHg 97%
18:00 +1°C° 0.5 mm 2 mps 744 mmHg 97%
19:00 +1°C° 0.5 mm 2 mps 744 mmHg 97%
20:00 0°C° 0.4 mm 3 mps 744 mmHg 95%
21:00 0°C° 0.4 mm 3 mps 744 mmHg 94%
22:00 -2°C° 0.4 mm 4 mps 744 mmHg 92%
23:00 -2°C° 0.2 mm 4 mps 744 mmHg 92%

Tomorrow, 13 April, Tuesday

Time Temperature Precipitation Wind Pressure Humidity
00:00 -2°C° 0.2 mm 4 mps 745 mmHg 92%
01:00 -2°C° 0.2 mm 4 mps 745 mmHg 92%
02:00 -2°C° 0.1 mm 4 mps 745 mmHg 88%
03:00 -2°C° 0.1 mm 4 mps 745 mmHg 85%
04:00 -2°C° 0.1 mm 4 mps 746 mmHg 81%
05:00 -1°C° 0 mm 3 mps 746 mmHg 80%
06:00 -1°C° 0 mm 3 mps 746 mmHg 78%
07:00 -1°C° 0 mm 2 mps 747 mmHg 76%
08:00 0°C° 0 mm 3 mps 747 mmHg 70%
09:00 +2°C° 0 mm 3 mps 748 mmHg 63%
10:00 +3°C° 0 mm 3 mps 748 mmHg 56%
11:00 +3°C° 0 mm 3 mps 749 mmHg 54%
12:00 +4°C° 0 mm 3 mps 749 mmHg 51%
13:00 +4°C° 0 mm 3 mps 749 mmHg 49%
14:00 +5°C° 0.1 mm 2 mps 749 mmHg 51%
15:00 +5°C° 0.1 mm 2 mps 750 mmHg 53%
16:00 +5°C° 0.1 mm 2 mps 750 mmHg 55%
17:00 +4°C° 0 mm 2 mps 750 mmHg 64%
18:00 +4°C° 0 mm 1 mps 751 mmHg 73%
19:00 +1°C° 0 mm 0 mps 751 mmHg 82%
20:00 +2°C° 0 mm 1 mps 751 mmHg 83%
21:00 +1°C° 0 mm 1 mps 752 mmHg 85%
22:00 0°C° 0 mm 1 mps 752 mmHg 86%
23:00 0°C° 0 mm 1 mps 753 mmHg 87%

Day after tomorrow, 14 April, Wednesday

Time Temperature Precipitation Wind Pressure Humidity
00:00 -1°C° 0 mm 1 mps 753 mmHg 88%
01:00 -1°C° 0 mm 1 mps 753 mmHg 89%
02:00 -1°C° 0 mm 1 mps 754 mmHg 88%
03:00 -1°C° 0 mm 1 mps 754 mmHg 87%
04:00 -1°C° 0 mm 1 mps 754 mmHg 86%
05:00 0°C° 0 mm 1 mps 755 mmHg 81%
06:00 +1°C° 0 mm 1 mps 755 mmHg 76%
07:00 +1°C° 0 mm 1 mps 755 mmHg 71%
08:00 +3°C° 0 mm 1 mps 756 mmHg 65%
09:00 +5°C° 0 mm 1 mps 756 mmHg 58%
10:00 +6°C° 0 mm 1 mps 756 mmHg 52%
11:00 +7°C° 0 mm 1 mps 756 mmHg 49%
12:00 +8°C° 0 mm 1 mps 756 mmHg 46%
13:00 +9°C° 0 mm 1 mps 756 mmHg 42%
14:00 +9°C° 0 mm 1 mps 756 mmHg 43%
15:00 +9°C° 0 mm 1 mps 756 mmHg 43%
16:00 +9°C° 0 mm 1 mps 756 mmHg 43%
17:00 +8°C° 0 mm 1 mps 756 mmHg 53%
18:00 +6°C° 0 mm 1 mps 756 mmHg 63%
19:00 +4°C° 0 mm 0 mps 756 mmHg 73%
20:00 +4°C° 0 mm 1 mps 757 mmHg 76%
21:00 +3°C° 0 mm 1 mps 757 mmHg 79%
22:00 +2°C° 0 mm 1 mps 758 mmHg 82%
23:00 +2°C° 0 mm 1 mps 758 mmHg 83%

15 April, Thursday

Time Temperature Precipitation Wind Pressure Humidity
00:00 +1°C° 0 mm 1 mps 758 mmHg 84%
01:00 -1°C° 0 mm 2 mps 758 mmHg 85%
02:00 -1°C° 0 mm 2 mps 759 mmHg 85%
03:00 -1°C° 0 mm 2 mps 759 mmHg 85%
04:00 -1°C° 0 mm 2 mps 759 mmHg 85%
05:00 -1°C° 0 mm 2 mps 759 mmHg 80%
06:00 +1°C° 0 mm 2 mps 759 mmHg 76%
07:00 +2°C° 0 mm 2 mps 760 mmHg 72%
08:00 +5°C° 0 mm 1 mps 760 mmHg 67%
09:00 +6°C° 0 mm 1 mps 760 mmHg 61%
10:00 +8°C° 0 mm 1 mps 760 mmHg 55%
11:00 +8°C° 0 mm 2 mps 760 mmHg 53%
12:00 +8°C° 0 mm 2 mps 760 mmHg 50%
13:00 +9°C° 0 mm 2 mps 760 mmHg 48%
14:00 +9°C° 0 mm 2 mps 760 mmHg 48%
15:00 +9°C° 0 mm 3 mps 759 mmHg 48%
16:00 +9°C° 0 mm 3 mps 759 mmHg 49%
17:00 +8°C° 0 mm 2 mps 759 mmHg 56%
18:00 +7°C° 0 mm 2 mps 759 mmHg 64%
19:00 +6°C° 0 mm 2 mps 760 mmHg 71%
20:00 +5°C° 0 mm 2 mps 760 mmHg 74%
21:00 +4°C° 0 mm 2 mps 760 mmHg 77%
22:00 +3°C° 0 mm 2 mps 760 mmHg 80%
23:00 +3°C° 0 mm 2 mps 761 mmHg 82%

16 April, Friday

Time Temperature Precipitation Wind Pressure Humidity
00:00 +2°C° 0 mm 2 mps 761 mmHg 84%
01:00 +2°C° 0 mm 2 mps 761 mmHg 85%
02:00 +1°C° 0 mm 2 mps 761 mmHg 86%
03:00 +1°C° 0 mm 2 mps 761 mmHg 87%
04:00 +1°C° 0 mm 2 mps 761 mmHg 87%
05:00 +2°C° 0 mm 2 mps 761 mmHg 84%
06:00 +2°C° 0 mm 2 mps 762 mmHg 81%
07:00 +3°C° 0 mm 2 mps 762 mmHg 78%
08:00 +4°C° 0 mm 3 mps 762 mmHg 72%
09:00 +5°C° 0 mm 3 mps 762 mmHg 66%
10:00 +8°C° 0 mm 3 mps 762 mmHg 60%
11:00 +9°C° 0 mm 3 mps 762 mmHg 57%
12:00 +9°C° 0 mm 3 mps 762 mmHg 54%
13:00 +10°C° 0 mm 3 mps 761 mmHg 51%
14:00 +10°C° 0 mm 3 mps 761 mmHg 50%
15:00 +11°C° 0 mm 3 mps 761 mmHg 50%
16:00 +11°C° 0 mm 3 mps 761 mmHg 50%
17:00 +10°C° 0 mm 3 mps 761 mmHg 56%
18:00 +9°C° 0 mm 2 mps 761 mmHg 62%
19:00 +8°C° 0 mm 2 mps 761 mmHg 68%
20:00 +7°C° 0 mm 2 mps 762 mmHg 72%
21:00 +6°C° 0 mm 2 mps 762 mmHg 77%
22:00 +5°C° 0 mm 2 mps 763 mmHg 82%
23:00 +5°C° 0 mm 2 mps 763 mmHg 83%

17 April, Saturday

Time Temperature Precipitation Wind Pressure Humidity
00:00 +4°C° 0 mm 2 mps 763 mmHg 85%
01:00 +4°C° 0 mm 2 mps 763 mmHg 86%
02:00 +3°C° 0 mm 2 mps 763 mmHg 86%
03:00 +3°C° 0 mm 2 mps 763 mmHg 86%
04:00 +2°C° 0 mm 2 mps 763 mmHg 86%
05:00 +3°C° 0 mm 2 mps 763 mmHg 81%
06:00 +3°C° 0 mm 2 mps 763 mmHg 75%
07:00 +4°C° 0 mm 2 mps 763 mmHg 70%
08:00 +5°C° 0 mm 2 mps 763 mmHg 60%
09:00 +5°C° 0 mm 3 mps 763 mmHg 51%
10:00 +8°C° 0 mm 3 mps 763 mmHg 41%
11:00 +9°C° 0 mm 3 mps 763 mmHg 40%
12:00 +10°C° 0 mm 3 mps 763 mmHg 39%
13:00 +11°C° 0 mm 3 mps 762 mmHg 39%
14:00 +12°C° 0 mm 2 mps 762 mmHg 39%
15:00 +12°C° 0 mm 2 mps 762 mmHg 39%
16:00 +13°C° 0 mm 2 mps 761 mmHg 40%
17:00 +12°C° 0 mm 2 mps 761 mmHg 45%
18:00 +10°C° 0 mm 2 mps 761 mmHg 51%
19:00 +10°C° 0 mm 1 mps 761 mmHg 57%
20:00 +9°C° 0 mm 1 mps 761 mmHg 61%
21:00 +8°C° 0 mm 1 mps 761 mmHg 65%
22:00 +7°C° 0 mm 1 mps 761 mmHg 69%
23:00 +6°C° 0 mm 1 mps 762 mmHg 71%
Show more